Buies Creek, NC

5:52 PM EST on January 21, 2017 (GMT -0500)
Harnett County

Weather History for KHRJ - February, 2014

Change the Weather History Date:

Sunday, February 16, 2014

  Actual Average Record
Temperature  
Mean Temperature 43 °F -  
Max Temperature 54 °F 58 °F 78 °F (1990)
Min Temperature 32 °F 36 °F 16 °F (1963)
Degree Days  
Heating Degree Days 22    
Moisture  
Dew Point 23 °F    
Average Humidity 53    
Maximum Humidity 89    
Minimum Humidity 28    
Precipitation  
Precipitation 0.00 in - - ()
Sea Level Pressure  
Sea Level Pressure 30.09 in    
Wind  
Wind Speed 2 mph (SW)    
Max Wind Speed 12 mph    
Max Gust Speed 16 mph    
Visibility 10 miles    
Events      
Averages and records for this station are not official NWS values.
T = Trace of Precipitation, MM = Missing Value Source: NWS Daily Summary

Daily Weather History Graph

Daily Weather History Graph

Search for Another Location

Airport or City:

Trip Planner

Search our weather history database for the weather conditions in past years. The results will help you decide how hot, cold, wet, or windy it might be!

Date:

Astronomy

Feb. 16, 2014 Rise Set
Actual Time 7:00 AM EST 5:58 PM EST
Civil Twilight 6:34 AM EST 6:24 PM EST
Nautical Twilight 6:04 AM EST 6:53 PM EST
Astronomical Twilight 5:35 AM EST 7:23 PM EST
Moon 7:47 PM EST (2/16) 7:34 AM EST (2/16)
Length of Visible Light 11h 49m
Length of Day
10h 57m
Full, 97% of the Moon is Illuminated
Feb 16
Full
Feb 22
Last Quarter
Mar 1
New
Mar 8
First Quarter
Mar 16
Full

Hourly Weather History & Observations

Time (EST) Temp. Windchill Dew Point Humidity Pressure Visibility Wind Dir Wind Speed Gust Speed Precip Events Conditions
12:15 AM 34.2 °F - 16.5 °F 49% 30.04 in 10.0 mi Calm Calm - N/A   Clear
12:35 AM 34.2 °F 31.2 °F 16.5 °F 49% 30.06 in 10.0 mi NNW 3.5 mph - N/A   Clear
12:55 AM 34.0 °F 31.0 °F 16.3 °F 49% 30.06 in 10.0 mi NNW 3.5 mph - N/A   Clear
1:15 AM 33.8 °F 30.8 °F 15.8 °F 48% 30.06 in 10.0 mi NNW 3.5 mph - N/A   Clear
1:35 AM 33.3 °F 30.2 °F 16.5 °F 50% 30.07 in 10.0 mi NNW 3.5 mph - N/A   Clear
1:55 AM 33.6 °F 30.6 °F 16.2 °F 49% 30.07 in 10.0 mi North 3.5 mph - N/A   Clear
2:15 AM 33.3 °F - 17.1 °F 51% 30.07 in 10.0 mi Calm Calm - N/A   Clear
2:35 AM 33.1 °F - 16.7 °F 51% 30.07 in 10.0 mi Calm Calm - N/A   Clear
2:55 AM 32.4 °F - 18.7 °F 57% 30.06 in 10.0 mi Calm Calm - N/A   Clear
3:15 AM 32.2 °F - 20.5 °F 62% 30.06 in 10.0 mi Calm Calm - N/A   Scattered Clouds
3:35 AM 32.0 °F - 21.2 °F 64% 30.06 in 10.0 mi Calm Calm - N/A   Mostly Cloudy
3:55 AM 32.0 °F - 20.5 °F 63% 30.07 in 10.0 mi Calm Calm - N/A   Scattered Clouds
4:15 AM 32.0 °F - 19.6 °F 60% 30.07 in 10.0 mi Calm Calm - N/A   Mostly Cloudy
4:35 AM 32.0 °F - 22.3 °F 67% 30.07 in 10.0 mi Calm Calm - N/A   Overcast
4:55 AM 32.2 °F 28.9 °F 20.7 °F 63% 30.07 in 10.0 mi North 3.5 mph - N/A   Overcast
5:15 AM 32.0 °F 28.7 °F 20.5 °F 63% 30.10 in 10.0 mi SSW 3.5 mph - N/A   Overcast
5:35 AM 32.4 °F - 18.9 °F 58% 30.11 in 10.0 mi Calm Calm - N/A   Overcast
5:55 AM 32.9 °F - 21.0 °F 62% 30.09 in 10.0 mi Calm Calm - N/A   Overcast
6:15 AM 32.4 °F 29.1 °F 21.2 °F 63% 30.11 in 10.0 mi WSW 3.5 mph - N/A   Overcast
6:35 AM 32.7 °F - 21.6 °F 64% 30.10 in 10.0 mi Calm Calm - N/A   Overcast
6:55 AM 32.5 °F - 21.0 °F 63% 30.12 in 10.0 mi Calm Calm - N/A   Overcast
7:15 AM 32.5 °F - 24.1 °F 71% 30.11 in 10.0 mi Calm Calm - N/A   Overcast
7:35 AM 32.9 °F - 22.1 °F 65% 30.11 in 10.0 mi Calm Calm - N/A   Overcast
7:55 AM 33.3 °F - 23.0 °F 66% 30.10 in 10.0 mi Calm Calm - N/A   Overcast
8:15 AM 33.4 °F - 20.5 °F 59% 30.11 in 10.0 mi Calm Calm - N/A   Mostly Cloudy
8:35 AM 34.0 °F 31.0 °F 20.7 °F 58% 30.12 in 10.0 mi SSW 3.5 mph - N/A   Overcast
8:55 AM 35.1 °F 32.2 °F 19.2 °F 53% 30.13 in 10.0 mi South 3.5 mph - N/A   Mostly Cloudy
9:15 AM 35.6 °F 31.7 °F 17.8 °F 48% 30.14 in 10.0 mi SSW 4.6 mph - N/A   Mostly Cloudy
9:35 AM 36.0 °F 32.1 °F 18.5 °F 49% 30.14 in 10.0 mi SSW 4.6 mph - N/A   Overcast
9:55 AM 36.5 °F 32.7 °F 19.2 °F 50% 30.14 in 10.0 mi South 4.6 mph - N/A   Overcast
10:15 AM 37.8 °F 33.3 °F 19.6 °F 48% 30.14 in 10.0 mi SSW 5.8 mph - N/A   Scattered Clouds
10:35 AM 38.8 °F 36.5 °F 20.5 °F 48% 30.14 in 10.0 mi South 3.5 mph - N/A   Clear
10:55 AM 39.7 °F 36.5 °F 21.2 °F 48% 30.14 in 10.0 mi South 4.6 mph - N/A   Clear
11:15 AM 40.8 °F - 20.5 °F 44% 30.13 in 10.0 mi Calm Calm - N/A   Clear
11:35 AM 42.4 °F 38.8 °F 22.3 °F 45% 30.12 in 10.0 mi South 5.8 mph - N/A   Clear
11:55 AM 43.9 °F 40.5 °F 24.4 °F 46% 30.11 in 10.0 mi SSW 5.8 mph - N/A   Clear
12:15 PM 44.8 °F - 26.6 °F 49% 30.10 in 10.0 mi Calm Calm - N/A   Clear
12:35 PM 46.2 °F 43.3 °F 28.4 °F 50% 30.09 in 10.0 mi SW 5.8 mph - N/A   Clear
12:55 PM 47.3 °F - 28.9 °F 49% 30.09 in 10.0 mi SW 8.1 mph - N/A   Clear
1:15 PM 48.9 °F - 30.4 °F 49% 30.07 in 10.0 mi SW 5.8 mph - N/A   Clear
1:35 PM 49.3 °F - 30.0 °F 48% 30.06 in 10.0 mi SSW 5.8 mph - N/A   Clear
1:55 PM 50.5 °F - 31.3 °F 48% 30.05 in 10.0 mi SW 6.9 mph - N/A   Clear
2:15 PM 51.6 °F - 29.5 °F 43% 30.05 in 10.0 mi SW 8.1 mph - N/A   Clear
2:35 PM 52.7 °F - 27.0 °F 37% 30.05 in 10.0 mi West 10.4 mph 16.1 mph N/A   Clear
2:55 PM 52.7 °F - 25.7 °F 35% 30.04 in 10.0 mi WSW 5.8 mph - N/A   Clear
3:15 PM 53.8 °F - 25.3 °F 33% 30.03 in 10.0 mi SW 6.9 mph - N/A   Clear
3:35 PM 53.6 °F - 25.0 °F 33% 30.03 in 10.0 mi SW 6.9 mph - N/A   Clear
3:55 PM 54.1 °F - 24.3 °F 31% 30.03 in 10.0 mi SW 8.1 mph - N/A   Clear
4:15 PM 54.3 °F - 24.1 °F 31% 30.03 in 10.0 mi SSW 8.1 mph - N/A   Clear
4:35 PM 54.3 °F - 23.2 °F 30% 30.03 in 10.0 mi SW 11.5 mph 16.1 mph N/A   Clear
4:55 PM 53.8 °F - 21.0 °F 28% 30.04 in 10.0 mi WSW 5.8 mph - N/A   Clear
5:15 PM 53.2 °F - 21.4 °F 29% 30.05 in 10.0 mi West 6.9 mph - N/A   Clear
5:35 PM 52.2 °F - 21.2 °F 30% 30.05 in 10.0 mi WSW 4.6 mph - N/A   Clear
5:55 PM 51.3 °F - 21.7 °F 31% 30.06 in 10.0 mi SW 4.6 mph - N/A   Clear
6:15 PM 50.5 °F - 21.9 °F 33% 30.07 in 10.0 mi SW 3.5 mph - N/A   Clear
6:35 PM 49.3 °F - 22.6 °F 35% 30.08 in 10.0 mi WSW 3.5 mph - N/A   Clear
6:55 PM 48.2 °F - 23.2 °F 37% 30.08 in 10.0 mi SW 3.5 mph - N/A   Clear
7:15 PM 47.3 °F - 23.5 °F 39% 30.08 in 10.0 mi Calm Calm - N/A   Clear
7:35 PM 46.4 °F - 24.6 °F 42% 30.08 in 10.0 mi Calm Calm - N/A   Clear
7:55 PM 42.8 °F - 27.0 °F 54% 30.09 in 10.0 mi Calm Calm - N/A   Clear
8:15 PM 42.4 °F - 26.4 °F 53% 30.09 in 10.0 mi Calm Calm - N/A   Clear
8:35 PM 40.5 °F - 27.5 °F 60% 30.10 in 10.0 mi Calm Calm - N/A   Clear
8:55 PM 38.3 °F - 29.1 °F 70% 30.11 in 10.0 mi Calm Calm - N/A   Clear
9:15 PM 37.0 °F - 29.3 °F 74% 30.12 in 10.0 mi Calm Calm - N/A   Clear
9:35 PM 36.9 °F - 29.7 °F 75% 30.12 in 10.0 mi Calm Calm - N/A   Clear
9:55 PM 35.2 °F - 29.1 °F 78% 30.13 in 10.0 mi Calm Calm - N/A   Clear
10:15 PM 33.8 °F - 30.0 °F 86% 30.14 in 10.0 mi Calm Calm - N/A   Clear
10:35 PM 34.9 °F - 28.2 °F 77% 30.14 in 10.0 mi Calm Calm - N/A   Clear
10:55 PM 34.0 °F - 28.2 °F 79% 30.15 in 10.0 mi Calm Calm - N/A   Clear
11:15 PM 32.2 °F - 29.3 °F 89% 30.15 in 10.0 mi Calm Calm - N/A   Clear
11:35 PM 32.4 °F - 28.8 °F 87% 30.16 in 10.0 mi Calm Calm - N/A   Clear
11:55 PM 33.3 °F - 27.9 °F 81% - 10.0 mi Calm Calm - N/A   Clear